Orbital Elements at Epoch 2459200.5 (2020-Dec-17.0) TDB
Reference: JPL 24 (heliocentric ecliptic J2000)
Element | Value | Uncertainty (1-sigma) | Units |
e | .1858261432951951 | 3.3476e-08 | |
a | 2.357849883048027 | 8.8558e-09 | au |
q | 1.919699732812186 | 7.7585e-08 | au |
i | 4.271111093968909 | 3.6495e-06 | deg |
node | 198.8190833726524 | 4.6372e-05 | deg |
peri | 119.2021989103964 | 4.7278e-05 | deg |
M | 165.8422398074557 | 9.4856e-06 | deg |
tp | 2458591.292406683987 (2019-Apr-17.79240668) | 3.359e-05 | TDB |
period | 1322.429881846695 3.62 | 7.4503e-06 2.04e-08 | d yr |
n | .272226153493508 | 1.5337e-09 | deg/d |
Q | 2.796000033283869 | 1.0501e-08 | au |
|
| | Orbit Determination Parameters
Additional Information
|